Wormley Airport

Jump to: basic info | weather | runways | comments

Related pages: nearby airports | nearby navaids | notams | map

Basic information (top)

Codes: 85LL
Location: lon 41.683899, lat -88.262299, elev 680 ft / 207 m msl
Status: small_airport

Weather (top)

Current conditions for Lewis University Airport 9nm (16km) ESE (rec'd 2015/03/04 23:55Z):

KLOT 042355Z AUTO 29010KT 10SM CLR M09/M15 A3025

Airport forecast for Dupage Airport 13nm (25km) N (rec'd 2015/03/04 00:39Z):

TAF KDPA 042338Z 0500/0524 29013G19KT P6SM SCT100 BKN250 
     FM050100 30007KT P6SM SCT200 
     FM052300 27007KT P6SM SKC

Runways (top)

N/S: 2,300 x 100 ft (701 x 30 m) — grass — not lighted

Latest comments (top)

No comments yet for Wormley Airport

More... (top)

See also NOTAMs and nearby airports and navaids, or visit the Wormley Airport page at the main OurAirports website..